GFSNW_250_rhum_078.txt.gz
RH
56 52 91 100 100 100 100 100 100 99 92 87 86 78 89 61 67 59 43 34 17 9 7 8 10 12 10 8 8 10 11 11 11 13 18 20 18 16 15 15 16 15 14 15
59 66 85 100 100 100 100 100 100 100 94 78 88 78 92 68 66 53 44 37 27 14 8 8 9 11 12 10 9 9 12 12 13 13 15 18 20 20 18 16 16 17 16 17
63 66 82 100 100 100 100 100 100 100 91 78 87 86 88 67 61 53 48 39 34 22 11 9 9 10 11 12 10 9 10 11 14 15 18 19 18 18 20 21 20 19 18 18
59 66 97 100 100 100 100 100 100 100 93 85 83 84 97 68 62 50 46 44 40 36 17 10 12 12 10 12 12 11 11 11 16 17 16 17 19 20 22 24 22 21 20 18
64 90 100 100 100 100 100 100 100 100 91 87 87 90 97 74 61 52 45 40 43 39 32 14 12 13 12 14 13 11 11 12 11 15 18 18 16 18 21 22 23 26 21 21
84 92 100 100 100 100 100 100 100 99 92 98 88 96 98 76 63 54 47 42 38 50 44 25 16 11 11 11 13 12 11 11 12 14 15 20 22 19 19 21 22 25 29 26
76 94 100 100 100 100 100 100 100 100 100 95 95 93 100 75 66 51 51 43 37 46 45 46 25 17 11 11 11 13 11 10 10 12 14 22 25 23 25 25 25 27 30 27
92 100 100 100 100 100 100 100 100 100 100 96 96 97 99 78 69 56 52 47 42 39 43 48 63 38 19 12 13 15 14 11 10 10 12 15 21 26 28 27 23 25 29 30
100 100 100 100 100 100 100 100 100 100 100 100 92 100 91 84 71 64 50 48 44 33 39 52 57 60 33 19 14 10 12 13 12 11 11 12 16 14 19 26 31 34 31 31
100 100 100 100 100 100 100 100 100 100 100 100 92 98 87 89 77 71 54 54 47 44 39 50 55 58 47 31 20 18 12 15 17 13 13 12 14 13 16 18 36 39 30 31
100 100 100 100 100 100 100 100 100 100 100 97 97 93 95 84 76 73 59 56 46 46 40 40 51 64 70 51 29 26 15 13 13 12 13 13 13 13 16 19 26 32 31 38
100 100 100 100 100 100 98 100 100 100 98 94 98 100 87 90 79 78 66 65 53 42 39 42 47 60 65 73 55 31 26 20 15 16 13 14 13 13 14 16 20 27 34 34
100 100 100 100 100 100 100 100 100 100 97 95 100 100 92 89 71 74 76 74 66 48 42 42 46 49 56 66 79 73 42 24 21 22 22 19 16 14 13 13 14 18 22 23
100 100 100 100 100 100 100 100 100 100 98 94 98 99 96 90 75 78 93 77 71 48 43 39 45 47 55 66 73 84 76 40 24 23 21 25 23 20 15 11 16 17 18 20
100 100 100 100 100 100 100 100 100 97 92 86 92 100 97 85 70 76 93 91 75 51 47 40 43 52 53 59 67 73 78 66 29 25 19 20 20 19 18 18 11 14 19 23
100 100 100 100 100 100 100 100 78 80 86 97 99 98 92 82 66 88 93 97 72 51 46 44 46 52 58 57 66 74 80 86 72 36 29 17 13 16 16 15 15 11 11 18
100 100 100 100 100 100 100 100 89 79 87 100 97 86 87 77 68 93 99 100 70 56 54 49 49 56 62 61 64 68 68 77 92 62 55 32 25 13 12 14 14 12 10 12
100 100 100 100 100 100 100 100 99 88 82 100 99 87 80 74 71 92 98 99 76 61 65 57 52 56 67 70 68 68 67 75 83 84 62 55 31 18 17 15 15 14 10 9
100 100 100 100 100 100 100 100 100 92 82 88 98 93 77 72 69 87 99 98 84 66 66 60 67 63 68 70 75 70 64 72 79 96 97 76 56 26 25 20 12 13 11 10
100 100 100 100 100 100 100 100 93 82 71 74 92 81 72 73 67 84 98 86 83 74 70 64 64 62 64 64 76 66 66 71 80 82 79 51 71 37 26 18 20 11 10 9
84 100 100 100 100 100 100 100 95 86 76 81 85 75 76 75 67 86 88 84 88 85 77 67 64 59 61 62 67 65 69 68 76 76 76 75 90 38 27 23 15 14 8 7
89 100 100 100 100 100 100 100 100 93 86 84 86 77 74 69 68 82 87 76 74 83 81 72 62 55 60 64 78 78 72 78 94 74 81 85 85 52 31 26 18 16 10 7
94 100 100 100 100 100 100 100 100 100 97 96 90 80 77 74 67 76 81 68 81 88 84 75 63 54 57 67 75 84 75 77 96 85 85 83 80 82 43 31 17 18 13 7
87 74 87 97 100 100 100 100 100 100 100 100 93 83 80 76 78 87 80 71 81 96 67 78 65 56 59 66 83 77 89 81 96 93 87 92 86 79 65 31 21 17 12 8
81 99 100 100 100 100 100 100 100 100 100 100 92 87 100 96 90 86 72 74 98 78 82 88 69 58 62 89 90 86 92 90 100 92 99 97 94 83 65 29 26 16 10 7
91 100 100 100 100 100 100 100 100 100 100 100 100 98 99 97 97 88 81 81 79 81 98 86 66 59 69 85 98 88 89 94 97 90 100 99 95 83 53 26 24 16 9 6
100 100 100 100 100 100 100 100 100 100 100 100 100 100 100 100 89 82 100 82 79 100 98 73 62 71 77 96 82 95 88 99 94 88 100 100 78 82 39 28 18 11 8 6

GFSNW_250_rhum_081.txt.gz
RH
7 30 90 50 55 64 100 100 100 100 100 100 100 96 80 76 60 67 53 45 23 14 11 10 10 7 8 8 8 8 10 10 11 9 12 15 17 16 15 14 15 15 16 17
11 66 76 57 59 90 100 100 100 100 100 100 99 99 82 72 65 64 52 48 33 17 12 9 9 10 9 9 9 9 9 12 13 13 12 13 14 16 17 16 15 16 16 18
43 100 64 58 52 100 100 100 100 100 100 100 100 100 84 69 65 67 58 53 37 24 14 9 8 12 11 10 9 10 9 9 12 14 18 19 16 16 16 18 18 18 17 16
100 66 64 50 77 100 100 100 100 100 100 100 100 98 83 73 66 71 62 52 40 29 18 17 10 13 13 12 12 10 10 10 9 11 15 16 20 22 21 21 17 17 16 16
63 83 72 65 100 100 100 100 100 100 100 100 100 98 92 72 66 74 62 47 43 33 30 25 16 11 12 13 13 13 10 9 10 9 10 14 18 18 20 23 23 22 18 19
98 97 65 86 100 100 100 100 100 100 100 100 100 99 85 76 72 77 70 43 47 39 36 35 23 16 11 13 14 13 14 13 10 10 10 12 13 16 19 20 22 25 25 20
99 68 78 100 100 100 100 100 100 100 100 98 100 100 87 78 77 75 75 48 46 42 36 40 32 24 16 12 12 14 12 15 14 11 12 12 12 14 16 18 21 25 25 24
70 92 88 98 100 100 100 100 100 100 100 100 100 100 86 82 75 78 71 61 46 43 41 43 39 40 26 18 14 13 13 13 14 13 12 13 12 12 14 16 20 28 29 28
98 100 98 100 100 100 100 100 100 100 100 100 100 100 87 85 77 78 75 62 45 46 44 43 45 39 46 30 19 14 12 14 14 14 14 13 13 11 12 16 20 24 30 31
100 100 99 100 100 100 100 100 100 100 99 100 100 98 95 92 81 76 80 63 51 41 45 43 46 55 58 47 34 25 20 18 18 18 20 21 19 13 13 15 18 20 21 22
90 100 100 100 100 100 100 100 100 99 100 100 100 95 96 99 87 77 79 61 63 49 46 39 39 51 59 62 62 46 32 22 24 21 19 19 24 21 20 15 15 15 17 18
96 100 100 100 100 100 100 100 100 100 100 100 99 98 99 100 86 79 78 65 60 52 48 40 37 40 51 57 66 72 63 43 34 34 43 22 17 19 21 24 20 14 14 16
100 98 100 100 100 100 100 99 99 92 94 94 100 96 100 100 96 86 79 64 58 55 51 42 38 42 42 53 60 67 72 64 58 44 38 34 22 20 18 22 23 21 16 15
100 100 100 100 100 100 98 99 100 92 96 98 100 100 100 100 97 93 81 65 62 60 51 50 42 37 38 42 55 61 67 71 68 56 50 49 40 38 21 20 21 16 17 19
100 100 96 98 100 99 100 88 94 91 90 93 100 100 100 92 94 97 91 68 66 59 58 56 56 48 41 39 44 54 62 70 72 77 58 60 44 40 35 27 26 20 17 15
100 98 92 100 94 100 100 95 96 92 95 100 100 100 100 95 100 100 85 71 69 68 72 59 61 66 56 49 46 50 59 69 75 78 90 72 62 46 50 28 20 15 17 14
80 88 90 92 97 100 100 100 100 93 96 98 99 100 100 98 88 92 84 69 69 65 67 58 66 71 62 58 57 56 60 76 82 74 90 90 76 73 58 43 33 20 17 13
89 100 99 93 100 100 100 100 100 91 84 74 93 100 100 96 89 88 86 72 68 62 69 61 62 66 69 69 60 61 60 81 80 82 82 85 95 86 49 41 44 28 17 16
80 91 100 89 97 93 100 100 100 93 86 84 88 94 100 100 90 91 80 66 67 58 67 62 71 72 65 79 78 64 66 74 77 88 94 93 87 89 93 69 32 33 19 14
86 93 100 100 94 100 95 100 100 99 93 74 85 85 86 86 84 85 83 61 59 57 66 67 75 79 71 72 77 70 71 73 74 95 82 89 82 90 75 64 48 37 22 14
96 100 100 100 100 90 96 100 100 97 86 87 91 96 90 79 88 87 80 66 62 57 67 67 76 86 77 72 86 80 70 72 69 93 95 87 97 84 86 71 45 43 29 21
89 100 100 100 99 97 97 95 95 94 89 92 96 99 100 100 92 82 76 66 59 60 62 69 85 87 76 81 83 80 76 70 70 84 91 98 100 87 87 91 71 63 36 22
82 90 95 97 95 98 95 91 99 97 99 97 99 94 99 97 88 75 71 61 60 63 58 72 88 89 83 84 76 79 83 74 70 73 80 100 98 88 88 91 71 80 52 26
59 71 82 78 82 89 100 100 100 100 100 100 100 96 95 95 86 78 66 63 63 65 63 74 88 96 93 93 84 75 93 88 71 78 85 96 100 92 89 80 74 90 62 25
72 79 84 90 88 98 100 100 100 100 100 100 100 93 90 88 82 80 73 70 76 61 64 82 94 99 100 94 94 77 89 95 73 76 84 98 99 94 90 87 75 85 53 27
88 86 100 100 100 100 100 100 100 100 100 100 100 95 90 86 86 89 82 83 67 60 70 80 95 97 96 99 91 82 83 97 79 70 83 100 96 94 85 84 86 76 49 24
81 82 91 89 97 100 100 100 100 100 100 100 100 100 98 95 95 96 99 90 65 70 70 77 83 86 100 96 85 82 89 87 79 70 84 95 97 84 88 92 88 72 38 16

GFSNW_250_rhum_084.txt.gz
RH
2 4 6 7 11 27 82 100 98 86 100 100 100 96 96 88 89 69 70 39 23 15 10 9 6 6 6 6 7 7 7 9 10 9 8 11 14 16 16 16 15 13 14 16
2 4 6 10 19 94 100 100 72 100 100 100 100 90 100 90 89 63 70 48 28 18 13 10 9 9 7 6 7 8 8 7 11 12 11 11 11 14 15 15 14 14 14 17
3 4 6 14 47 100 100 98 86 100 100 100 95 93 100 92 86 62 66 58 33 23 16 11 14 11 12 9 8 8 8 8 8 9 13 14 16 16 18 18 18 16 15 15
4 6 8 32 100 100 100 78 100 100 100 100 94 98 100 95 78 63 66 51 40 26 19 17 16 14 10 10 10 8 10 10 9 8 9 12 16 18 20 19 19 20 18 16
5 10 33 100 100 100 90 100 100 100 100 99 91 98 100 94 78 66 63 51 40 32 23 21 19 15 12 11 12 11 10 10 12 11 10 10 12 14 18 20 21 21 19 20
7 25 98 100 100 100 100 100 100 100 100 89 93 98 99 92 81 68 64 59 41 36 35 27 23 21 17 15 14 13 13 12 9 10 10 10 10 10 13 17 18 21 23 22
17 64 100 100 100 96 100 100 100 100 100 99 93 92 99 97 85 71 69 64 40 36 42 38 30 29 26 22 18 17 13 12 13 13 11 11 12 12 12 11 14 18 19 21
45 100 100 100 100 100 100 100 100 100 97 98 82 94 100 100 86 71 75 67 44 40 41 37 41 38 38 32 23 24 25 16 14 16 19 22 21 16 14 15 15 15 14 16
90 100 100 100 98 100 100 100 100 100 99 96 87 92 100 100 89 76 75 70 52 44 43 39 35 46 57 52 37 31 28 29 27 21 20 16 18 18 19 16 13 15 16 15
100 100 100 100 100 100 100 100 96 99 96 100 95 94 100 100 87 77 81 72 54 43 45 38 41 41 47 55 51 48 40 38 34 36 34 31 20 16 22 25 22 18 14 14
100 100 100 100 100 100 100 100 100 100 99 98 93 90 100 99 86 74 86 74 62 48 48 45 49 42 49 53 59 61 53 41 38 40 38 44 43 33 24 18 17 19 22 22
100 100 100 100 100 100 100 100 99 99 94 100 94 92 100 99 86 76 84 81 64 56 53 52 51 50 49 53 54 61 61 61 58 48 41 38 38 44 43 33 24 19 17 14
100 100 100 100 100 100 100 94 98 90 97 96 82 100 100 98 88 74 80 85 65 64 55 55 52 51 46 50 56 57 61 64 66 62 52 53 45 44 44 42 43 38 24 18
90 92 100 100 100 100 100 96 88 92 97 97 98 100 100 100 90 78 81 89 79 64 58 53 54 49 49 48 50 60 64 68 64 69 76 68 60 55 61 48 30 42 39 25
96 100 100 94 100 100 100 100 94 100 100 99 96 100 100 97 94 85 81 85 80 64 60 56 56 56 52 57 57 62 68 76 68 62 66 74 61 71 68 58 45 34 32 32
100 100 100 85 100 100 100 92 91 100 100 100 100 100 100 95 98 87 91 91 83 67 61 59 56 59 57 58 64 66 65 72 86 72 67 68 66 73 67 74 97 57 51 40
100 100 86 91 95 100 100 92 91 100 100 100 100 100 100 99 95 89 90 91 85 78 63 60 62 60 63 63 62 72 66 71 90 78 95 70 72 68 78 83 82 73 57 41
98 83 97 85 92 97 99 100 98 100 100 99 100 100 100 98 88 88 94 94 86 74 64 59 65 68 62 68 74 76 72 77 80 82 89 87 72 78 72 86 74 94 55 59
81 71 84 82 93 94 99 97 92 94 93 93 98 100 98 98 89 82 98 95 87 82 73 61 64 68 57 65 71 76 77 75 86 88 77 92 83 75 77 76 84 92 69 61
80 66 84 69 78 82 91 93 95 94 91 85 77 81 78 85 89 88 92 93 88 80 74 66 65 67 62 65 64 66 75 78 84 93 85 92 97 82 75 79 94 91 80 64
98 78 67 70 71 83 98 100 94 89 80 70 67 75 76 92 93 98 100 99 86 80 73 70 71 68 60 62 64 77 82 87 91 86 94 87 96 86 79 81 91 95 89 74
100 100 92 86 92 80 86 99 100 99 82 68 66 70 78 85 100 99 99 93 88 84 70 72 68 70 60 61 71 86 88 85 85 85 99 84 100 93 72 84 95 94 85 83
100 100 99 70 74 81 84 94 90 98 91 90 83 84 87 86 88 98 93 83 81 86 68 64 72 72 63 62 71 82 81 87 86 79 99 85 100 94 71 80 90 90 96 75
100 100 100 79 68 81 98 91 91 88 97 98 97 93 87 87 86 84 81 83 88 82 61 62 72 66 62 63 73 93 86 90 85 90 95 92 100 86 76 76 82 89 91 77
100 100 92 82 77 82 92 92 87 98 100 100 100 93 89 88 96 87 78 75 82 72 65 72 73 62 64 79 90 90 81 97 87 94 86 100 97 92 78 78 79 87 89 74
100 100 100 93 96 90 88 89 96 100 100 100 100 93 90 86 89 83 79 77 76 71 75 65 60 64 72 94 91 90 90 94 84 81 94 99 87 90 74 74 79 89 83 80
95 100 99 97 100 92 95 97 100 100 100 100 100 100 100 100 100 90 90 90 80 76 68 66 62 69 77 85 88 97 96 92 85 85 92 92 91 93 72 70 78 87 60 67

GFSNW_250_rhum_087.txt.gz
RH
1 2 3 3 4 5 10 49 100 100 100 100 98 100 100 89 79 83 64 34 24 15 12 6 6 6 6 6 6 7 8 9 9 8 6 8 12 17 23 21 17 13 14 16
2 3 3 3 4 8 26 100 100 100 100 93 100 100 100 82 86 83 59 41 26 18 12 7 6 7 7 7 9 8 8 8 10 13 11 8 8 10 12 14 15 16 15 15
3 4 4 4 7 16 77 100 100 100 100 100 100 100 99 84 84 74 69 42 28 22 15 9 7 7 9 7 8 9 10 10 9 12 14 18 16 13 14 16 16 14 14 13
4 4 4 6 14 43 100 100 100 100 98 100 100 100 92 84 86 70 69 45 32 25 20 14 11 7 10 10 8 9 9 10 10 10 11 16 18 22 20 16 16 17 16 14
4 3 5 7 28 92 100 100 100 100 100 100 100 100 88 85 77 70 69 52 35 29 23 18 22 18 19 16 10 11 10 10 11 11 11 12 16 19 22 25 25 22 20 20
4 5 7 11 55 100 100 100 100 100 100 100 100 97 89 84 74 70 68 59 38 35 30 22 21 23 28 30 22 17 15 16 14 13 15 14 11 11 12 16 22 27 29 24
6 12 24 56 98 100 100 100 99 100 100 100 99 91 89 75 74 69 73 57 38 38 33 28 26 24 33 36 34 31 29 24 23 19 14 14 14 15 16 13 11 13 18 23
11 23 59 83 100 100 100 100 98 100 100 100 87 90 83 74 75 70 70 56 41 39 34 35 31 34 36 44 45 38 42 34 32 36 27 21 22 20 18 14 16 17 14 12
24 59 100 100 100 100 100 100 100 100 100 97 90 89 82 82 79 70 71 60 48 39 39 32 35 35 41 44 53 48 54 54 45 39 41 32 45 46 40 32 24 20 16 15
52 93 99 100 100 100 100 96 100 100 100 93 92 90 89 86 86 72 72 65 59 47 44 40 36 37 43 48 48 57 56 52 56 56 47 43 49 45 46 53 52 39 29 21
53 78 96 100 100 99 84 93 100 100 100 100 89 97 94 88 88 72 75 71 69 59 52 48 45 44 55 52 51 55 55 56 53 45 52 55 54 49 54 53 54 57 50 41
62 89 100 100 100 100 97 100 100 100 99 92 98 97 98 92 86 77 79 79 70 67 58 52 50 54 58 55 59 56 68 60 67 61 58 63 65 55 56 52 51 47 49 48
78 92 100 100 100 100 96 90 95 100 98 98 100 100 100 94 84 80 79 84 75 63 62 56 57 60 56 63 61 63 66 66 68 72 65 67 71 77 72 74 67 64 57 53
92 100 100 100 100 99 99 93 88 99 100 100 100 100 100 96 83 76 78 79 79 66 62 62 60 60 58 55 56 60 64 66 73 62 65 68 66 77 68 85 80 77 54 63
98 100 100 100 100 100 96 100 100 100 100 100 100 100 100 99 84 84 83 81 87 80 68 63 62 60 60 57 56 57 66 67 74 66 70 65 69 74 66 81 67 77 80 60
86 100 100 100 100 81 68 98 100 100 100 100 100 100 100 92 88 91 86 83 92 89 78 68 64 59 58 58 54 56 51 63 67 69 72 76 66 81 75 90 75 75 89 89
96 100 100 100 99 87 77 84 98 100 100 98 100 100 98 91 92 93 82 83 87 89 82 72 73 65 59 60 60 55 54 63 64 80 66 83 70 80 75 83 88 70 79 86
100 100 98 99 100 100 92 86 91 100 94 100 100 99 100 100 98 91 84 83 86 93 95 89 85 71 64 66 64 56 58 59 63 75 67 76 69 78 85 79 91 85 76 90
100 100 90 89 100 100 94 80 96 100 100 100 100 98 97 100 96 93 88 84 88 100 96 97 94 86 72 68 65 58 61 60 64 66 66 75 66 86 86 78 90 80 95 80
100 100 100 94 100 100 100 96 93 100 100 100 99 94 95 92 97 97 96 98 98 100 99 96 96 86 69 64 62 60 59 58 62 64 71 72 73 86 85 91 98 89 95 80
100 100 98 92 100 99 96 96 90 100 100 100 97 93 89 92 100 96 96 100 100 100 100 96 86 83 72 64 67 57 59 58 62 68 81 73 80 88 85 97 89 94 88 92
100 100 94 89 95 96 100 100 100 99 95 93 86 84 82 83 89 92 97 100 100 100 92 86 83 81 66 68 69 55 58 59 71 74 79 80 95 83 89 92 90 87 94 93
100 96 100 99 91 100 98 100 100 100 99 89 75 77 77 74 83 91 98 100 100 100 90 83 80 79 70 74 63 52 53 62 69 74 83 91 96 81 87 90 94 94 94 97
100 100 100 99 95 95 100 100 100 94 87 85 77 80 91 94 94 96 100 100 98 96 84 79 81 76 71 73 60 51 54 64 76 81 91 93 85 78 93 89 98 82 93 93
100 100 100 100 100 97 100 100 98 96 86 75 76 88 97 100 100 100 100 98 100 97 92 88 78 71 66 63 54 52 67 82 86 97 95 82 88 80 86 84 92 84 82 86
100 100 100 100 99 99 100 99 84 87 83 82 83 92 100 100 100 100 100 100 100 100 97 87 75 61 54 57 56 67 89 99 87 94 83 81 87 88 87 84 87 84 83 82
100 100 100 100 100 99 100 98 89 72 83 86 93 99 100 100 100 100 100 100 100 100 100 75 56 49 56 62 74 86 99 86 85 86 80 92 91 88 96 82 80 83 70 79

GFSNW_250_rhum_090.txt.gz
RH
1 1 2 2 3 3 5 7 10 41 100 100 100 100 100 98 74 39 28 21 17 16 9 5 4 4 4 4 4 5 6 7 7 7 8 14 16 18 19 16 15 14 13 12
1 1 2 3 4 4 7 9 21 73 100 100 100 100 100 93 81 49 36 34 17 15 10 7 5 4 5 5 6 7 7 7 9 10 9 11 14 20 21 20 17 16 16 16
2 2 3 5 4 6 7 17 57 97 100 100 100 100 100 96 78 52 50 36 21 17 11 8 7 7 8 7 7 8 8 9 8 10 12 17 20 19 18 17 17 16 16 16
2 3 6 7 7 9 30 58 95 100 100 100 100 100 97 95 72 59 55 33 25 20 14 10 8 6 7 11 11 11 11 12 12 11 10 11 14 16 23 24 25 23 20 19
3 4 6 7 14 22 67 83 100 100 100 100 100 99 93 87 73 70 55 33 29 21 19 15 13 12 10 11 11 16 19 18 14 16 17 15 13 12 13 18 22 26 31 26
5 6 5 6 22 43 72 97 100 100 99 100 100 99 89 81 78 74 54 36 30 25 25 23 24 22 22 22 23 25 28 24 21 19 17 18 18 19 20 16 13 14 16 17
5 6 6 11 17 46 72 100 100 88 96 99 96 100 88 80 80 72 51 40 34 31 26 27 31 32 33 34 39 31 36 47 43 37 34 41 31 25 22 21 22 22 20 16
5 7 10 24 32 64 90 96 80 94 100 98 98 92 84 76 79 74 54 47 42 37 32 29 34 39 40 45 46 44 44 50 48 46 43 50 52 49 42 35 31 28 24 21
8 21 40 43 74 94 99 81 78 100 86 95 100 92 84 80 75 80 63 51 49 45 40 34 33 34 37 44 46 46 52 49 52 48 48 43 54 52 47 50 55 57 50 47
11 20 40 62 100 97 91 78 84 92 84 93 92 89 86 78 73 82 69 62 54 50 46 48 46 43 41 38 44 50 49 50 53 52 46 42 47 48 49 49 54 54 56 56
32 39 71 100 100 100 87 78 84 80 89 91 95 95 94 86 74 81 74 71 62 53 51 52 48 51 50 48 43 50 53 57 56 55 57 51 50 58 58 63 58 51 47 50
41 52 99 100 100 97 82 78 87 86 95 95 96 97 95 88 78 78 84 70 66 59 56 56 56 55 53 54 55 53 55 56 61 58 64 58 61 67 68 63 65 65 71 64
61 94 100 100 100 98 73 90 98 94 99 100 99 100 98 92 83 84 85 85 71 66 64 60 57 58 58 60 64 61 60 58 66 63 69 60 59 64 68 76 72 75 83 92
61 100 100 100 100 92 80 94 100 99 100 100 100 100 100 96 90 85 82 84 88 76 74 70 64 60 59 61 64 60 60 58 60 66 64 70 59 62 75 68 78 80 79 82
80 98 100 100 100 97 89 100 99 99 100 100 100 100 100 96 89 89 90 84 92 91 92 82 69 65 63 65 71 67 59 60 60 55 68 65 62 65 69 74 80 82 82 88
82 100 100 100 100 97 95 100 97 99 100 100 100 100 100 98 98 95 90 93 90 95 100 98 86 81 70 72 71 66 59 58 55 55 66 66 70 73 76 72 80 93 88 85
84 96 100 100 98 88 100 100 100 88 100 100 100 100 100 100 95 95 93 90 90 92 100 100 97 90 83 81 75 68 65 57 57 54 58 71 70 77 75 76 76 93 87 84
100 100 100 100 97 86 89 96 94 83 91 100 100 100 100 100 98 100 100 100 95 95 99 95 95 87 80 82 75 70 68 61 56 56 58 65 67 79 74 79 81 82 83 88
100 100 100 100 99 80 85 91 74 89 94 100 100 100 100 100 100 100 100 100 100 100 100 95 88 88 79 75 78 71 67 62 56 58 59 65 65 77 75 82 82 84 76 95
100 100 100 100 100 88 88 99 85 87 95 100 100 100 100 98 100 100 100 100 100 100 100 92 86 88 84 78 82 71 68 65 58 55 60 65 65 78 81 82 89 83 77 87
100 100 100 100 100 99 76 91 98 100 100 100 97 100 100 100 100 100 100 100 100 100 100 91 81 94 95 84 82 72 66 66 56 55 63 63 67 77 84 80 90 83 79 82
100 100 100 100 100 100 92 81 91 100 100 100 100 100 100 100 100 100 100 100 100 100 95 90 99 96 91 85 81 71 68 63 56 60 62 59 74 86 91 87 89 82 76 85
100 100 100 100 100 100 100 99 96 96 100 100 100 100 98 97 100 100 100 99 98 100 100 96 98 100 95 84 72 66 65 58 60 62 60 69 78 80 89 90 81 76 88 81
100 100 100 100 100 100 100 100 100 96 84 98 100 100 100 100 100 100 100 100 100 100 95 100 100 100 92 76 67 64 58 60 62 65 60 73 79 89 95 81 78 87 79 75
100 100 98 100 100 100 100 100 100 99 86 88 95 90 90 95 100 100 100 100 100 100 100 99 99 90 77 65 62 63 64 67 68 65 74 88 83 84 93 83 81 83 69 73
90 100 100 100 100 100 100 100 100 100 95 86 87 94 98 100 100 100 100 100 100 100 100 100 100 86 70 59 66 70 66 67 69 72 77 84 84 84 82 80 74 88 73 79
82 100 100 100 100 100 100 100 100 100 97 90 94 98 100 100 100 100 100 100 100 100 100 100 87 80 75 66 68 68 65 72 74 83 76 88 88 88 86 82 73 74 76 66

GFSNW_250_rhum_093.txt.gz
RH
1 1 1 2 2 5 5 6 11 23 48 63 78 73 78 85 52 35 22 16 10 7 5 4 2 3 3 3 4 5 4 5 6 7 8 9 12 14 15 12 13 16 19 18
1 2 2 3 5 6 6 10 22 38 62 86 81 82 84 64 44 28 22 16 9 8 6 4 3 3 4 4 4 4 6 6 6 7 9 12 14 17 20 19 17 15 15 16
2 2 4 6 7 8 12 14 42 61 83 95 89 85 71 53 42 28 21 16 10 8 7 5 4 4 4 5 6 6 6 6 8 8 9 11 14 18 19 20 23 23 22 24
2 3 4 7 8 16 34 30 54 69 92 100 88 75 63 54 38 31 24 17 12 11 8 6 5 6 6 7 9 10 9 10 11 11 11 12 13 12 14 18 22 23 24 24
4 5 8 10 18 29 43 79 74 93 99 90 86 69 67 52 40 34 29 21 17 16 14 12 8 8 9 9 11 13 16 15 17 17 16 16 16 15 16 19 19 17 16 17
6 8 8 11 18 34 60 82 91 94 92 98 83 74 65 49 41 40 34 28 23 22 20 19 16 16 18 19 19 19 20 19 19 24 25 28 23 25 25 23 22 20 18 20
7 7 6 15 38 57 60 77 88 93 98 95 82 75 66 50 46 44 40 34 31 32 29 28 28 26 26 27 28 30 29 29 34 37 46 54 44 43 39 34 33 35 32 29
9 8 11 32 55 65 73 77 87 93 98 93 81 76 69 54 50 48 43 40 40 42 38 38 41 41 42 40 38 38 39 40 40 38 41 42 45 51 50 46 56 55 51 49
8 10 36 64 67 83 85 82 81 94 100 92 81 82 79 63 56 50 46 45 46 49 48 46 47 46 47 48 53 54 47 46 51 50 46 49 53 46 48 44 44 45 46 46
22 29 51 76 90 93 85 89 100 98 99 82 80 81 82 72 66 58 54 53 51 49 49 50 51 49 49 49 47 52 58 58 56 59 59 57 54 60 64 58 56 51 50 49
44 63 80 91 90 99 90 97 99 100 96 83 86 85 90 82 69 72 66 58 56 56 54 52 54 52 49 52 50 50 51 51 53 56 59 59 58 60 64 62 60 56 62 62
84 86 94 100 92 95 91 100 100 100 98 84 83 80 82 87 78 76 73 66 63 61 56 55 56 59 59 55 56 55 57 54 56 52 51 52 63 66 64 66 70 68 77 66
92 93 98 100 89 94 92 99 100 99 98 94 87 81 78 78 85 94 92 76 69 71 70 62 58 63 65 66 60 59 58 59 58 58 63 62 56 58 65 72 79 76 79 74
86 100 100 100 91 91 100 99 100 99 100 100 92 92 88 80 83 87 93 91 90 88 86 74 66 70 68 75 78 68 62 59 59 61 62 62 65 64 63 70 85 77 78 75
88 100 97 100 96 95 95 100 100 100 100 98 95 100 99 96 87 87 91 90 96 100 92 87 79 85 81 84 82 72 65 64 61 56 57 65 64 68 65 77 83 83 78 78
70 100 100 100 93 96 92 96 100 100 100 100 91 99 100 100 100 100 99 100 97 100 96 89 90 90 88 89 88 80 71 65 64 56 54 57 64 65 73 76 82 82 76 79
73 96 99 100 100 96 84 94 98 99 100 94 96 98 100 100 100 100 100 100 100 99 96 97 93 87 84 84 91 88 82 70 68 64 54 54 58 66 67 72 86 82 83 77
79 92 100 100 100 99 84 93 100 96 92 92 94 100 100 98 97 100 100 100 100 100 96 98 96 90 84 79 90 93 90 81 73 69 63 57 57 65 72 82 79 77 82 84
96 97 100 100 100 100 98 99 96 99 88 78 83 90 100 100 100 100 100 100 100 100 100 93 90 92 90 78 78 88 90 88 77 72 63 57 55 67 70 78 73 69 82 93
98 95 100 100 100 100 100 100 94 94 100 100 77 100 100 100 100 100 100 100 100 100 100 100 100 100 91 80 77 81 80 86 81 73 64 57 58 68 73 69 71 66 80 90
88 96 94 100 100 100 100 99 100 95 99 100 100 84 99 100 100 100 100 100 100 100 100 100 99 100 100 94 85 83 80 76 77 71 62 59 64 72 68 67 69 70 82 99
39 87 76 86 100 100 100 98 100 100 100 100 99 87 97 100 100 100 100 100 100 100 100 100 100 100 96 91 85 78 72 75 78 68 62 62 67 69 66 63 64 73 78 78
18 39 70 72 81 98 100 100 100 100 100 100 100 98 100 100 100 98 87 99 100 100 100 100 100 100 93 82 77 82 73 68 73 67 65 61 70 66 61 59 66 75 70 74
9 19 37 42 63 78 100 100 100 100 100 100 100 97 89 96 89 87 100 100 100 100 100 100 100 94 89 83 82 80 71 75 74 69 67 66 67 68 63 58 61 64 64 70
7 9 16 33 61 96 100 100 100 100 100 100 100 100 100 96 86 91 100 100 100 100 100 100 100 99 98 85 78 75 75 89 77 69 70 79 83 74 62 62 67 70 78 82
6 6 10 39 77 98 96 100 100 100 100 99 100 100 99 100 97 99 95 100 100 100 100 100 100 100 97 80 75 84 91 87 82 72 82 93 78 64 68 72 70 71 76 81
5 7 12 50 95 100 96 93 100 100 100 100 100 100 96 100 100 100 100 100 100 100 100 100 100 100 94 89 94 90 83 74 78 74 71 84 81 75 81 80 82 72 74 83

GFSNW_250_rhum_096.txt.gz
RH
2 2 2 3 4 4 6 7 10 11 14 34 48 41 23 16 12 9 7 6 4 4 3 2 2 2 2 2 3 2 3 4 4 6 9 10 13 18 22 24 23 27 36 50
2 3 4 6 7 8 13 13 12 17 39 48 38 23 19 14 12 10 7 6 6 4 3 3 3 3 3 3 3 4 4 4 5 7 7 10 11 16 17 16 19 24 23 27
5 5 7 8 9 12 22 24 22 42 48 32 26 22 19 17 14 11 9 7 5 4 4 4 4 4 4 4 4 5 6 5 6 10 10 12 14 17 20 20 21 27 29 27
7 8 9 10 14 21 37 36 34 43 31 28 26 23 19 16 14 12 10 8 6 6 6 6 7 6 6 6 6 6 7 7 7 10 10 13 16 18 18 20 22 22 25 30
8 10 16 17 22 29 48 45 45 38 35 29 27 27 24 21 17 13 11 8 8 8 8 10 11 12 11 10 10 11 11 11 12 12 11 10 13 15 14 16 17 17 18 20
9 12 15 27 48 47 44 39 41 42 36 30 30 32 29 28 25 20 17 14 12 11 12 12 11 13 17 18 18 18 16 16 18 20 23 23 21 20 19 20 21 21 22 20
19 20 33 41 70 65 54 48 48 45 38 35 37 37 33 34 32 30 27 22 21 20 22 20 19 19 22 24 26 26 27 27 25 25 28 29 25 25 26 28 28 31 34 33
25 36 60 71 76 76 67 63 62 57 50 45 45 44 42 42 41 41 42 38 37 35 36 31 30 29 31 35 37 38 37 37 37 35 35 37 40 44 44 48 50 39 37 39
28 52 76 83 87 80 81 74 70 64 58 54 51 49 49 50 52 50 48 50 47 47 46 44 45 43 45 45 42 44 47 50 51 46 42 41 43 48 51 49 50 53 57 59
34 78 79 82 83 90 89 85 77 73 69 63 58 54 53 54 54 53 51 52 52 52 53 51 53 50 50 51 49 48 51 50 51 56 62 66 62 61 61 60 64 59 54 52
45 57 80 84 80 86 88 91 85 80 84 77 67 63 59 57 57 57 56 54 54 56 58 56 54 55 55 57 56 57 58 61 58 56 60 64 64 62 65 62 60 59 62 64
99 73 95 87 82 95 97 86 90 84 92 92 79 74 69 66 61 58 55 55 56 60 62 64 68 66 61 64 61 58 57 57 59 62 66 64 67 64 67 65 69 68 65 66
100 98 95 99 92 94 93 97 96 87 89 99 100 92 93 82 73 68 62 67 69 67 67 67 68 74 69 65 66 65 62 56 54 56 61 65 70 72 70 73 67 58 58 67
100 100 83 98 99 100 92 89 94 97 100 98 100 100 100 100 100 97 84 84 85 81 75 81 79 80 82 81 76 70 69 67 62 58 55 60 64 67 72 70 67 63 70 72
70 93 100 100 100 100 100 95 98 100 98 95 96 99 99 97 99 95 92 98 94 91 91 90 90 87 86 88 96 92 82 77 68 68 67 58 60 68 68 73 69 68 67 78
82 95 100 100 100 100 100 100 98 100 100 97 96 95 100 99 100 100 100 98 91 90 100 99 93 89 88 88 84 88 96 95 89 76 72 68 60 63 64 77 67 69 83 69
31 92 99 98 100 100 100 100 100 100 100 100 100 94 91 97 97 100 100 99 100 99 100 100 99 89 88 92 86 84 86 93 95 91 80 74 67 61 64 68 67 76 73 66
24 42 100 96 100 100 100 100 100 100 100 100 100 100 96 92 100 100 100 98 98 96 99 100 98 97 90 88 86 82 84 88 91 93 90 77 69 65 68 71 67 69 68 68
27 15 66 100 97 100 100 100 100 100 98 100 100 100 100 97 96 100 100 100 97 99 99 99 100 100 98 98 88 83 80 86 82 89 88 79 71 68 67 70 65 73 68 62
24 21 12 74 100 85 100 100 100 95 99 94 100 100 100 97 100 100 100 100 100 99 100 92 98 100 100 100 97 89 82 80 75 77 81 75 70 70 68 73 74 76 68 62
28 18 15 21 76 99 79 100 100 100 100 100 99 99 100 94 83 92 100 100 100 92 100 100 91 100 100 100 100 86 85 74 75 72 74 72 70 71 82 83 78 70 62 62
24 22 14 12 17 78 85 89 100 100 100 100 100 100 100 100 93 88 92 99 100 100 98 100 100 100 100 100 98 87 84 82 83 73 72 77 69 67 76 76 69 64 57 65
17 18 17 12 9 11 81 85 100 100 100 100 97 93 90 91 85 90 84 77 98 100 92 100 95 100 100 100 100 98 96 87 85 81 72 74 68 64 63 63 63 61 63 66
15 15 14 12 10 7 46 100 100 100 100 100 100 87 96 100 100 91 100 73 87 100 100 100 85 100 100 100 100 100 100 87 84 87 80 75 66 71 69 64 68 66 69 68
13 14 11 12 11 8 19 100 100 100 100 100 98 93 100 100 99 96 96 90 90 100 100 100 96 100 100 100 100 100 100 96 92 92 86 76 70 71 71 66 76 75 70 67
11 12 10 13 10 8 11 78 100 100 100 100 100 99 98 98 100 100 100 97 100 100 100 82 100 100 100 100 100 100 100 100 100 93 85 82 74 73 77 79 92 81 74 72
9 14 10 10 10 8 8 36 100 100 99 93 94 100 98 92 100 100 100 100 100 100 96 100 100 100 100 100 100 100 100 100 100 100 93 86 84 88 94 83 80 75 83 76

GFSNW_250_rhum_099.txt.gz
RH
7 7 8 9 11 13 17 22 28 21 18 15 13 11 8 7 5 4 4 3 3 2 2 2 2 2 2 2 2 2 3 3 4 5 8 12 16 21 26 39 36 48 74 73
13 13 14 14 20 26 31 26 20 16 14 11 10 9 7 6 5 4 3 3 3 4 3 2 2 2 2 3 3 3 3 3 5 6 9 9 15 18 26 34 45 50 56 77
19 25 24 30 26 26 24 20 16 15 13 11 10 9 7 6 5 4 4 5 5 4 3 3 3 3 3 3 4 4 4 4 5 6 8 10 18 21 34 37 42 53 62 64
25 30 37 41 36 30 25 17 15 13 14 14 14 14 12 10 8 7 8 6 4 4 4 4 4 4 4 5 6 5 6 6 6 7 8 10 13 18 20 27 33 36 38 46
26 34 41 48 39 28 22 16 15 16 18 19 18 16 15 13 11 11 9 8 7 7 7 6 8 9 8 8 8 8 8 8 8 9 10 13 12 12 13 15 19 19 21 21
39 35 55 50 34 26 22 19 19 17 18 19 18 17 18 17 14 12 10 11 11 11 11 11 12 12 13 13 13 12 13 13 14 16 16 15 15 16 17 16 17 15 16 16
52 48 64 52 38 26 26 24 23 23 24 24 25 24 22 21 20 18 15 14 14 16 14 15 17 18 18 19 20 19 18 18 22 24 26 26 24 26 27 25 19 20 20 21
71 59 67 64 42 34 30 29 29 30 32 33 33 33 31 30 29 26 27 26 25 26 26 25 25 27 27 28 27 27 28 28 31 32 33 35 35 29 36 42 44 46 50 44
89 75 87 78 66 50 38 33 32 35 35 40 41 41 39 39 40 40 39 41 41 39 37 39 42 42 43 42 43 39 38 40 40 40 42 44 43 41 43 42 47 48 43 44
100 89 100 100 91 74 58 48 42 42 41 47 48 49 49 47 50 49 48 50 48 48 50 54 56 56 54 53 54 54 52 52 51 52 50 50 49 46 53 51 56 56 55 58
100 100 100 100 100 91 81 67 60 52 50 52 54 57 55 56 58 60 60 59 58 58 57 56 55 55 58 60 61 64 63 63 61 59 58 57 58 56 53 51 51 52 50 46
68 100 100 100 100 100 95 88 74 67 62 59 57 60 59 59 60 61 63 64 66 67 66 64 64 65 64 61 58 57 62 64 65 64 64 66 64 60 62 60 56 58 63 62
37 84 96 100 100 100 100 98 90 85 82 74 68 64 64 64 67 79 77 68 65 66 68 77 78 77 74 70 71 67 66 63 60 65 69 70 72 68 72 67 63 61 63 68
77 38 91 82 100 100 100 100 100 96 92 96 95 84 78 76 76 79 92 95 83 79 79 79 84 87 89 89 85 82 81 81 79 75 69 69 72 73 67 72 67 63 66 64
82 70 46 100 84 99 100 100 100 100 100 94 97 99 98 98 100 99 96 100 100 95 92 92 92 89 85 87 86 90 93 92 91 86 85 81 74 72 80 77 75 74 72 66
67 86 47 54 100 96 92 100 100 100 100 100 100 100 100 100 99 100 98 98 100 100 99 96 95 87 82 80 75 78 84 87 87 89 90 88 83 75 78 87 78 76 77 72
78 67 85 36 46 100 100 97 100 100 100 100 100 100 100 100 100 100 100 100 100 100 99 96 89 87 83 80 73 76 76 78 83 85 86 84 82 78 77 79 77 80 81 78
89 70 75 56 34 48 100 100 94 100 100 100 100 100 95 96 98 100 100 100 100 93 91 90 89 91 92 91 84 83 79 75 75 78 78 82 80 76 78 79 86 83 80 71
96 100 86 71 36 31 41 92 100 90 94 100 100 100 100 96 89 96 100 100 100 100 92 88 89 97 97 100 89 87 89 84 78 76 77 73 75 73 72 73 73 71 62 65
88 100 100 68 47 30 25 28 75 100 99 93 100 100 100 100 93 80 90 97 100 100 100 99 96 86 98 100 100 99 83 84 77 75 77 74 70 73 70 68 69 70 64 66
76 76 94 86 57 26 25 19 27 67 100 100 100 100 100 100 100 96 83 83 76 84 99 100 100 75 100 100 100 100 98 93 94 83 88 82 73 71 73 70 67 67 69 68
59 56 74 100 59 34 20 22 20 51 93 100 100 100 100 96 100 94 81 76 74 76 87 97 100 64 96 100 100 100 100 100 100 100 99 87 90 92 91 77 75 71 74 67
57 52 66 90 54 36 18 20 24 24 73 100 100 100 100 100 97 92 90 69 66 87 84 78 100 88 71 100 100 100 100 100 100 100 100 95 98 94 93 93 87 83 79 77
66 52 65 81 45 36 28 19 18 19 20 56 100 100 100 100 99 94 80 79 78 78 92 100 100 88 89 84 98 100 100 100 100 100 100 100 100 94 99 100 98 88 83 86
60 51 56 87 35 20 17 19 16 16 18 16 36 67 100 100 99 81 74 86 93 86 100 100 100 100 86 66 91 100 100 100 100 100 100 100 100 100 100 100 92 89 79 72
52 54 68 61 28 17 12 13 15 13 17 16 12 21 56 100 100 93 63 68 96 100 100 100 100 83 80 86 94 100 100 98 100 100 100 100 100 96 90 99 96 83 70 67
49 40 74 68 28 20 14 11 14 12 13 17 12 9 18 55 100 100 95 73 88 100 100 100 100 77 79 98 100 100 100 99 99 100 100 100 100 100 89 80 78 78 75 74

GFSNW_250_rhum_102.txt.gz
RH
45 28 21 15 12 11 11 10 10 9 8 7 6 5 4 4 4 3 2 2 2 2 2 2 2 2 2 2 2 2 2 3 4 5 8 13 15 30 36 62 76 70 58 38
51 34 20 14 12 10 9 8 7 7 6 5 4 4 4 3 3 3 3 2 2 2 2 2 2 2 2 2 2 3 4 4 6 8 8 13 20 38 64 69 81 91 92 81
76 31 26 18 12 10 8 6 6 6 5 5 5 4 4 4 4 3 2 2 3 3 3 3 2 3 3 3 3 3 4 4 6 9 11 17 32 40 70 84 75 91 100 99
99 43 29 19 15 12 10 8 8 9 10 10 8 7 7 6 4 5 5 4 4 3 3 3 3 3 4 4 4 4 4 5 6 8 9 12 26 43 58 74 95 81 99 100
100 100 49 25 20 16 14 11 12 14 14 14 14 12 11 11 10 9 7 7 5 4 4 4 4 4 5 5 6 6 6 8 9 12 11 11 12 15 23 40 56 61 59 68
74 100 100 45 28 23 18 18 16 15 16 18 19 19 17 16 14 13 10 9 10 9 8 8 8 10 9 9 8 8 8 9 10 12 14 15 14 14 13 14 15 13 21 20
42 89 100 94 47 33 26 21 20 21 18 17 18 20 20 19 19 18 18 16 15 14 16 16 15 16 16 15 14 14 14 14 16 17 17 15 16 15 16 19 19 19 19 21
38 60 100 100 99 56 41 33 29 26 25 24 26 27 26 24 24 25 26 26 25 25 25 25 24 22 23 24 23 22 22 23 27 25 26 26 25 26 27 27 27 26 24 24
68 48 74 100 100 100 80 50 42 39 33 32 31 34 37 38 39 39 38 41 40 40 40 41 39 36 34 34 32 32 33 34 30 33 37 43 42 38 35 32 34 33 36 39
74 62 58 96 95 100 100 90 64 49 46 42 39 39 41 42 42 44 48 49 49 50 48 49 50 50 51 51 51 51 47 45 45 44 44 44 42 39 36 36 35 40 43 42
60 72 69 58 75 94 100 100 97 78 62 53 51 48 49 50 47 47 48 51 52 54 56 55 53 54 55 58 60 61 60 57 56 52 52 52 48 45 46 46 46 45 50 52
53 40 66 69 67 76 90 98 100 100 95 81 66 59 55 53 54 60 63 65 65 63 63 64 63 61 60 60 60 59 61 61 61 63 62 63 58 56 55 54 53 51 51 53
44 45 55 74 99 69 69 94 96 98 100 100 93 85 75 72 70 70 66 71 72 76 83 80 76 76 76 76 74 73 70 69 67 64 64 64 64 65 64 62 60 57 56 58
34 51 50 58 71 79 78 81 89 88 94 98 99 90 94 98 100 92 88 87 83 85 89 90 85 83 83 85 83 84 85 87 86 82 77 76 77 81 79 80 76 70 64 61
39 48 53 50 64 81 73 59 97 96 82 96 99 100 89 94 100 100 99 93 92 93 88 89 85 83 80 79 76 74 78 79 79 85 90 89 86 78 81 82 78 85 81 79
53 64 55 44 56 72 65 86 67 78 100 93 99 100 100 96 92 99 100 99 97 91 89 90 84 78 76 77 76 75 75 76 80 76 75 79 83 82 80 80 77 73 78 76
62 59 61 70 55 63 62 58 82 71 55 84 100 100 100 100 100 93 98 100 100 100 91 87 85 81 76 70 68 66 66 68 76 81 81 80 75 76 77 79 78 74 73 66
90 76 74 66 74 72 65 68 67 72 48 68 96 98 100 99 100 99 92 97 100 98 99 91 85 83 91 86 84 79 66 61 64 64 67 78 80 77 76 75 73 74 72 73
76 89 86 70 91 95 57 69 65 52 50 38 88 100 99 100 100 92 94 95 90 94 96 83 88 82 85 90 96 100 99 85 80 77 74 63 65 71 76 76 76 75 74 71
100 99 97 92 90 100 60 66 77 48 40 48 40 69 100 100 94 100 100 93 83 91 95 76 97 100 67 94 80 97 100 100 100 98 93 89 72 70 68 74 79 84 94 93
100 99 98 100 100 86 54 66 67 67 55 45 45 35 40 72 98 96 100 100 94 70 80 79 87 100 62 100 94 73 74 93 99 100 100 100 100 98 91 92 77 77 83 98
100 100 100 100 88 90 69 86 55 59 53 38 36 35 27 24 44 77 95 98 89 77 74 73 89 100 87 85 98 100 95 82 82 97 100 100 100 100 100 100 100 96 95 99
100 100 94 100 100 100 83 65 57 48 63 37 28 26 33 24 20 34 53 83 96 87 78 74 93 100 100 88 90 85 75 85 89 77 98 100 100 99 100 100 100 100 97 89
100 100 98 94 100 100 73 65 67 62 64 32 25 21 20 23 18 17 18 50 73 87 89 86 100 100 100 98 94 89 93 80 77 95 82 91 100 100 100 100 100 100 100 100
94 99 100 100 100 100 87 70 62 61 51 21 21 20 17 17 17 14 14 14 52 72 98 93 97 100 100 100 98 82 75 88 87 94 91 78 72 100 100 97 99 100 100 100
91 100 100 100 100 100 95 70 59 56 47 39 18 19 15 14 13 12 10 13 16 72 82 80 84 98 98 99 100 89 74 80 79 96 100 100 89 76 97 95 93 100 100 100
99 100 100 100 100 100 94 74 65 54 49 30 14 14 12 12 12 13 13 17 20 14 57 72 69 84 94 100 100 99 84 81 79 88 100 100 100 97 91 86 85 97 100 100

GFSNW_250_rhum_105.txt.gz
RH
87 50 26 18 12 8 5 5 5 4 4 4 4 3 3 3 3 3 3 3 2 2 2 2 2 2 2 2 2 2 3 4 4 5 8 13 20 12 21 33 30 25 39 19
56 98 42 27 17 12 8 6 7 6 5 4 4 3 3 3 3 3 2 2 3 3 2 2 2 2 2 2 2 3 4 4 6 8 10 21 32 35 40 67 55 31 26 28
55 73 80 42 27 19 13 9 10 8 8 6 5 3 3 4 3 3 3 2 2 3 3 3 2 2 3 3 3 3 4 7 7 8 13 18 36 52 60 47 59 84 64 47
51 52 85 77 60 32 22 17 14 11 10 8 6 6 5 5 5 4 3 4 4 3 4 4 3 3 3 3 4 5 5 6 6 7 10 20 30 41 41 51 70 79 90 76
35 49 51 79 86 69 36 24 21 20 16 15 15 12 10 9 7 8 7 6 5 4 4 4 4 5 5 6 4 5 6 7 7 7 8 12 14 26 35 38 44 53 62 79
44 30 47 50 71 88 70 39 30 28 28 27 24 23 22 19 16 13 13 12 9 9 8 8 7 7 7 8 9 8 9 12 13 14 14 13 15 15 14 16 16 18 28 22
36 48 40 42 48 68 82 68 50 40 35 32 35 36 32 32 30 22 19 18 18 18 17 16 15 16 15 13 11 11 11 11 12 13 15 14 15 17 18 22 20 25 28 30
34 38 56 34 40 54 67 74 68 67 52 44 37 35 38 37 33 35 35 33 30 26 25 25 26 26 26 23 21 18 18 21 22 21 20 20 18 17 16 15 16 17 18 18
46 36 37 54 42 34 57 68 83 73 75 64 51 47 46 43 39 36 34 34 37 40 37 36 35 35 34 31 30 31 33 34 30 29 30 29 28 27 25 25 26 24 29 30
38 35 38 50 62 36 32 56 67 83 85 73 74 56 53 55 54 50 46 43 42 45 44 43 44 45 46 46 44 44 42 40 36 35 35 38 40 41 36 32 35 36 36 35
42 44 34 43 39 58 55 40 41 66 77 93 78 75 70 61 61 58 60 60 57 55 56 56 55 53 51 50 50 53 54 54 52 49 46 46 48 45 44 43 47 48 51 44
61 39 54 56 48 40 51 57 53 56 54 74 93 88 74 75 72 74 69 63 68 73 72 69 70 70 68 67 64 63 61 57 57 57 58 54 54 52 50 47 46 46 45 46
49 58 57 35 60 50 54 57 66 69 65 49 54 89 96 76 75 71 75 78 77 75 79 78 77 75 74 74 77 76 74 73 72 70 68 67 64 60 58 56 55 54 53 53
68 64 64 46 39 61 67 65 72 73 71 61 46 53 63 98 85 77 74 73 82 85 84 82 80 76 74 75 77 82 83 86 88 88 84 79 76 78 74 69 66 65 63 62
68 66 45 58 50 68 60 73 64 82 78 71 65 41 48 63 90 99 80 80 74 79 82 81 75 75 73 72 72 70 71 77 77 78 77 84 85 82 77 74 70 66 64 65
81 92 70 60 83 77 51 70 69 71 77 67 68 76 69 37 54 83 100 93 84 76 78 83 82 74 70 67 66 70 70 74 77 81 79 78 77 79 80 81 82 75 71 72
73 81 68 58 59 74 72 96 87 80 99 88 65 59 73 68 38 38 72 100 100 88 77 70 77 83 80 71 66 64 65 63 65 69 68 73 79 77 76 80 82 80 77 75
72 91 100 79 85 84 99 54 88 71 97 97 70 65 71 79 71 44 31 59 84 100 99 92 69 75 85 81 85 72 73 80 79 76 65 64 66 63 71 77 80 82 85 90
73 79 89 89 94 96 100 98 71 80 86 79 74 78 76 76 66 47 37 27 52 63 99 94 84 90 98 63 97 88 82 77 86 100 100 88 83 72 67 71 76 76 80 75
100 100 84 96 100 100 100 89 87 69 83 76 62 64 75 88 71 62 33 35 26 42 72 77 87 100 100 60 89 100 75 95 87 80 86 100 100 100 95 82 82 97 91 90
96 96 100 95 100 100 91 100 100 74 85 64 72 46 53 64 65 66 35 33 30 25 60 93 68 100 100 98 64 97 89 87 74 75 73 77 83 99 100 100 100 93 95 100
100 99 94 100 87 100 100 100 100 75 81 64 74 57 58 64 57 50 38 25 28 25 24 78 100 92 92 100 96 77 88 87 97 100 97 81 76 82 92 88 91 98 100 99
100 97 92 100 99 100 100 100 100 81 71 66 58 62 64 56 55 49 47 22 25 22 24 24 97 100 97 85 94 100 76 75 80 90 96 95 99 80 77 86 93 97 85 97
100 100 100 99 100 100 100 100 100 100 84 66 58 66 70 67 71 67 43 22 19 20 19 20 18 21 88 100 99 93 100 75 64 70 85 93 86 94 97 99 92 78 85 88
100 100 100 100 100 100 100 100 100 96 68 63 72 63 62 58 66 79 55 25 12 13 15 13 15 14 15 33 93 100 97 94 71 59 62 75 98 96 90 100 100 99 92 89
100 100 100 100 100 100 100 100 99 92 71 63 69 64 60 50 76 93 84 28 10 11 12 12 12 15 18 16 22 84 87 99 97 70 59 66 91 100 100 100 100 100 100 100
100 100 100 100 100 100 100 96 94 85 63 53 54 63 48 56 99 95 74 20 21 19 12 10 11 12 12 19 17 34 78 89 97 99 77 64 74 100 100 100 100 100 100 100

GFSNW_250_rhum_108.txt.gz
RH
30 32 44 32 42 41 22 16 13 9 8 6 4 4 4 4 3 3 3 3 3 3 3 2 2 3 3 3 3 3 3 3 4 5 6 8 5 6 7 14 15 40 35 21
35 32 38 44 34 40 43 27 16 13 9 9 7 5 4 4 3 3 3 3 3 3 3 2 2 2 3 3 3 3 4 4 4 9 14 22 16 14 14 12 27 46 48 52
38 40 31 39 39 35 37 41 41 25 14 12 10 9 7 5 4 4 4 3 3 3 3 3 4 3 3 4 4 5 6 6 10 11 17 18 30 34 31 32 29 44 52 77
24 41 43 36 37 36 34 35 41 44 38 22 14 13 11 11 8 7 5 4 4 4 5 4 4 4 4 6 7 9 10 10 9 12 20 26 32 59 58 58 73 73 63 82
32 31 49 39 34 34 36 36 37 40 48 42 37 26 19 18 16 13 11 10 6 6 6 8 10 10 9 9 9 9 10 10 9 13 20 29 35 56 75 65 51 100 95 100
30 28 31 49 52 33 32 39 36 41 44 50 48 44 35 30 23 20 17 17 15 13 11 10 10 11 13 13 12 13 16 18 19 17 19 21 26 23 25 36 37 35 96 87
43 36 37 31 37 57 60 42 38 38 44 49 51 50 51 45 36 33 30 27 27 25 26 22 18 18 17 14 14 14 14 15 15 17 20 19 24 26 34 38 40 40 35 50
55 48 40 34 28 38 43 59 38 37 37 42 48 56 56 54 55 47 40 36 36 34 37 39 38 35 32 28 25 23 22 22 22 20 18 15 14 14 15 14 16 23 34 49
65 64 44 43 32 29 35 45 58 51 36 37 40 42 52 62 64 62 58 49 44 41 37 36 39 38 36 32 31 33 34 34 32 29 28 29 30 26 26 24 20 17 15 17
61 76 52 39 29 40 35 32 46 52 54 40 34 40 44 48 56 67 71 68 60 54 54 53 49 44 42 42 42 41 40 41 40 39 37 33 36 36 37 37 34 34 32 31
73 76 57 53 36 26 34 47 36 50 42 50 58 60 43 47 56 53 56 70 76 70 60 58 60 60 56 54 52 50 49 50 48 46 44 43 44 45 44 41 42 43 43 41
100 66 84 66 57 42 24 39 39 37 35 47 49 54 63 63 53 66 64 56 63 79 80 72 66 65 67 72 67 64 59 56 59 58 58 55 57 56 55 58 58 56 58 57
100 95 86 67 76 59 35 38 48 49 35 42 52 56 55 61 56 60 57 74 68 63 78 82 75 72 76 80 85 85 81 78 72 67 64 62 59 57 56 55 55 55 53 52
100 100 100 88 75 70 52 36 33 50 42 50 46 58 61 58 68 53 76 62 69 78 68 76 84 74 71 70 71 77 78 82 86 87 85 83 79 76 70 68 65 63 63 63
100 100 99 100 99 87 68 44 42 33 44 57 49 52 56 52 59 67 53 60 78 73 82 80 66 73 77 70 70 66 68 71 74 78 74 74 77 79 81 81 79 76 73 69
100 100 100 98 81 86 70 52 44 39 59 60 48 47 65 56 51 62 72 60 51 89 95 88 95 92 78 75 74 67 64 63 63 65 69 70 69 70 70 70 74 78 74 72
100 93 100 100 96 86 78 73 92 63 50 65 50 53 66 60 59 44 54 74 64 49 88 98 90 100 100 96 64 68 69 67 62 59 63 64 63 69 69 71 70 72 76 80
100 80 99 100 98 85 93 84 100 94 79 57 59 70 79 57 65 65 42 53 76 64 49 59 98 100 95 100 61 93 80 86 77 75 73 76 69 70 74 78 78 75 71 72
100 100 92 97 94 76 100 96 85 100 80 79 80 82 71 66 70 79 63 44 56 73 65 45 50 94 100 97 66 66 99 79 73 82 79 70 74 64 62 69 68 76 91 89
100 100 100 94 88 100 100 87 81 100 100 88 74 81 69 69 70 79 60 48 41 77 85 63 47 44 28 44 72 42 49 97 79 75 71 70 83 73 70 66 66 67 72 85
100 100 100 100 100 100 100 100 100 100 100 83 64 68 79 82 84 84 66 52 34 48 74 77 84 38 49 47 67 100 48 52 74 75 69 77 78 75 76 79 77 69 66 71
100 99 98 100 100 100 100 100 100 100 100 98 99 85 74 83 92 86 76 64 42 34 44 44 78 67 48 36 37 44 81 84 66 76 64 65 78 80 88 98 95 96 88 76
100 100 100 100 100 100 100 100 100 94 79 84 66 74 97 91 98 92 89 71 47 39 37 48 48 52 48 41 30 28 33 43 75 86 86 70 67 64 69 88 91 88 100 100
100 100 100 100 100 100 100 100 100 100 84 84 88 89 100 99 87 100 97 86 72 39 49 59 52 30 36 36 39 30 22 22 32 54 98 97 73 74 72 66 69 80 87 94
100 100 100 100 100 100 100 100 100 100 96 100 96 71 69 85 99 99 92 99 81 43 51 58 59 58 42 32 27 37 32 22 18 24 34 56 97 95 78 82 86 71 68 78
100 100 100 100 100 100 100 100 100 100 100 100 100 88 90 87 95 94 100 89 57 61 51 48 61 80 77 54 37 24 31 37 24 15 20 30 31 55 90 92 94 97 92 77
100 100 100 100 100 100 100 98 100 100 100 100 92 100 96 91 99 100 93 55 62 68 43 46 63 69 78 68 50 32 16 15 23 17 12 16 23 29 32 54 81 93 98 96

GFSNW_250_rhum_111.txt.gz
RH
36 24 35 32 27 31 33 28 30 27 23 13 8 5 4 4 3 3 3 3 3 3 3 4 4 4 5 5 5 5 6 6 6 5 8 12 13 16 20 22 35 39 47 28
34 28 24 27 36 25 32 32 28 28 29 31 28 12 6 5 4 3 3 4 3 3 3 4 3 3 4 4 5 6 8 8 8 12 17 31 26 22 23 23 38 35 48 48
57 39 27 33 38 33 29 33 32 30 30 35 36 39 22 10 6 5 4 3 4 4 5 6 6 7 7 8 10 10 11 10 14 22 29 40 40 34 35 33 54 45 40 56
85 50 43 24 31 30 37 29 39 34 31 36 40 40 38 32 18 10 7 6 5 6 7 10 11 11 13 16 19 20 20 16 20 20 22 32 50 46 31 58 58 70 37 52
97 78 51 32 23 25 24 31 40 34 38 32 37 41 43 44 41 34 18 15 12 10 10 11 13 15 17 21 21 25 35 32 33 28 30 34 46 62 54 49 52 72 73 33
100 100 77 58 41 27 25 21 31 41 35 38 39 37 40 44 48 48 45 36 22 22 18 16 14 15 15 15 16 18 25 33 38 41 43 45 43 57 59 55 52 51 69 45
100 99 96 76 59 43 34 25 22 25 39 37 39 44 42 40 50 51 55 51 47 36 30 30 28 26 26 27 26 22 18 17 18 22 27 40 45 49 60 58 50 53 55 56
100 78 100 100 72 59 44 34 29 23 24 43 41 40 50 51 47 47 57 59 60 54 49 40 34 36 36 33 29 30 32 29 26 22 18 16 16 18 30 50 52 69 68 76
96 97 100 90 99 75 56 37 30 23 28 28 40 42 36 49 51 52 55 60 64 66 60 57 54 46 41 39 40 40 36 37 39 38 35 32 29 25 19 19 24 29 37 40
71 99 99 80 84 91 85 58 42 26 26 32 27 47 49 38 42 53 56 63 67 68 66 67 65 62 56 50 45 43 43 41 40 40 41 39 39 39 36 36 35 36 37 36
81 68 97 100 86 88 100 83 64 40 32 22 43 35 37 52 43 37 54 59 64 67 70 68 67 68 68 67 64 58 54 49 46 44 43 42 42 43 50 47 45 43 43 43
100 98 66 79 66 97 82 89 72 58 45 26 32 55 41 31 50 45 40 51 67 67 73 76 68 66 63 63 63 65 70 67 63 58 54 50 50 52 53 55 55 56 59 59
100 100 98 72 96 78 99 91 79 65 55 43 29 33 48 40 32 48 54 48 44 64 82 74 73 79 70 67 62 57 54 56 61 67 68 67 64 61 59 58 58 59 59 61
100 94 100 96 100 100 100 91 89 71 58 53 41 42 30 46 39 36 47 55 61 53 51 68 89 86 78 71 64 61 59 56 54 52 52 56 61 65 69 69 67 65 65 67
100 98 100 100 100 100 100 100 98 91 80 61 50 46 38 41 42 37 43 49 57 54 57 51 50 78 79 61 64 76 71 66 62 58 56 56 54 50 52 58 66 72 70 66
100 94 70 94 100 100 100 100 100 100 100 81 82 63 48 43 36 28 26 44 48 62 52 50 53 57 63 34 56 93 79 83 79 73 65 60 56 52 52 52 48 51 61 63
100 100 86 84 98 91 100 100 93 99 100 99 100 73 70 56 46 34 29 32 48 48 58 48 51 56 72 74 58 46 97 83 86 92 88 75 65 62 57 54 55 50 50 51
100 100 100 100 91 69 92 100 100 97 82 91 92 100 76 71 65 53 34 30 61 57 65 60 52 65 64 64 50 51 54 89 97 95 96 93 84 85 78 72 70 71 65 60
98 98 100 100 100 99 100 100 100 100 95 98 99 100 100 77 90 70 52 39 49 45 53 57 63 69 59 56 54 54 47 43 48 60 88 100 92 72 79 83 83 74 68 69
95 100 100 100 100 99 83 100 100 100 100 100 100 100 100 94 92 80 63 52 51 59 55 55 56 73 68 68 64 66 58 53 39 40 50 48 86 83 78 84 77 73 74 72
100 100 100 99 81 100 88 91 100 100 94 86 100 100 95 94 92 88 89 84 61 61 82 38 56 68 80 80 62 64 66 64 51 46 33 32 44 43 76 78 88 78 79 79
100 100 100 100 100 100 100 97 82 100 100 100 100 100 100 100 99 80 82 70 70 86 82 66 44 71 86 73 74 58 58 52 54 52 45 39 27 23 34 51 82 94 86 82
100 100 100 100 100 98 100 100 100 100 100 100 100 100 100 100 96 89 88 81 97 100 95 78 57 93 83 76 68 63 55 61 53 51 54 42 39 33 21 22 34 42 81 92
100 100 98 98 100 100 100 100 100 100 100 100 100 100 100 100 100 100 100 87 100 100 100 63 80 100 89 75 65 65 48 55 50 43 43 41 41 37 29 25 19 20 32 39
100 100 100 100 100 100 100 100 100 98 100 100 100 100 100 100 100 99 98 100 100 100 60 81 100 99 94 84 71 63 55 44 52 45 43 49 44 28 31 25 23 20 16 17
100 100 100 100 100 100 100 100 100 100 100 100 100 100 100 100 89 83 100 100 100 50 70 94 100 100 96 90 90 53 50 46 38 42 42 50 59 56 37 22 23 23 19 16
100 100 100 100 100 100 100 100 100 100 100 100 100 100 100 100 100 100 100 100 66 66 73 100 100 100 84 91 91 56 53 48 44 43 52 59 65 60 54 45 33 23 18 16